Location: Silverdale
(47.6506°N, 122.6941°W)
Time: 01:56:52
(UTC+00:00)

A-11 Canister half - Pass Details

Date: 04 October 2022
Orbit: 1524 x 1685 km, 47.3° (Epoch: 05 December)

Event Time Altitude Azimuth Distance (km) Brightness Sun altitude
Rises 05:20:36 0° 290° (WNW) 4,716 12.5 -34.9°
Reaches altitude 10° 05:23:48 10° 285° (WNW) 3,747 11.7 -35.3°
Maximum altitude 05:32:34 44° 217° (SW) 2,088 9.5 -36.5°
Enters shadow 05:32:36 44° 217° (SW) 2,088 9.5 -36.5°
